Weather reports worldwide

Advertisment
Aviemore, United Kingdom (3063): temperature & dewpoint: 30.07.2020 02:00:00 - 05.08.2020 02:00:00 (BST)Aviemore, United Kingdom (3063): temperature -20cm & temperature -100cm: 30.07.2020 02:00:00 - 05.08.2020 02:00:00 (BST)Aviemore, United Kingdom (3063): wind speed & gusts: 30.07.2020 02:00:00 - 05.08.2020 02:00:00 (BST)Aviemore, United Kingdom (3063): wind direction: 30.07.2020 02:00:00 - 05.08.2020 02:00:00 (BST)Aviemore, United Kingdom (3063): reduced air pressure: 30.07.2020 02:00:00 - 05.08.2020 02:00:00 (BST)Aviemore, United Kingdom (3063): visibility: 30.07.2020 02:00:00 - 05.08.2020 02:00:00 (BST)Aviemore, United Kingdom (3063): sunshine duration: 30.07.2020 02:00:00 - 05.08.2020 02:00:00 (BST)Aviemore, United Kingdom (3063): precipitation: 30.07.2020 02:00:00 - 05.08.2020 02:00:00 (BST)
Date & Time tt [°C] td [°C] tt -20cm [°C] tt -100cm [°C] ff [km/h] ff [kn] fx [km/h] fx [kn] dd ppp [hPa] vv [km] sd [min] rr [mm]
05.08.2020 02:00:00 13,6 12,2 - - 8 4 - - SSW 996,1 65 0 0,0
05.08.2020 01:00:00 14,5 12,7 - - 11 6 - - SW 995,4 6 - 0,2
05.08.2020 00:00:00 15,5 13,3 - - 13 7 - - SW 994,6 70 0 0,0
04.08.2020 23:00:00 15,3 14,0 - - 11 6 - - SSW 994,3 60 0 0,0
04.08.2020 22:00:00 15,7 14,2 - - 11 6 - - SW 994,2 16 0 0,0
04.08.2020 21:00:00 15,8 14,7 - - 9 5 - - SW 994,1 17 0 0,0
04.08.2020 20:00:00 15,8 14,9 - - 8 4 - - SSW 994,2 4,8 0 1,2
04.08.2020 19:00:00 15,5 14,6 - - 8 4 - - SW 994,5 4,0 0 1,0
04.08.2020 18:00:00 15,3 14,1 - - 11 6 - - SW 994,9 5 0 0,2
04.08.2020 17:00:00 14,8 13,1 - - 13 7 - - SW 995,3 20 0 0,6
04.08.2020 16:00:00 14,0 12,4 - - 13 7 - - SW 996,5 16 0 1,2
04.08.2020 15:00:00 13,4 11,6 - - 15 8 - - SW 997,8 10 0 0,4
04.08.2020 14:00:00 12,5 11,1 - - 13 7 - - SW 998,7 10 0 1,2
04.08.2020 13:00:00 12,1 10,4 - - 11 6 - - SW 1000,3 15 0 0,6
04.08.2020 12:00:00 12,3 9,6 - - 11 6 - - SW 1001,6 21 0 0,2
04.08.2020 11:00:00 11,6 9,7 - - 16 9 46 25 SSW 1002,5 15 0 0,6
04.08.2020 10:00:00 11,7 8,8 15,7 14,2 13 7 - - SSW 1003,3 35 0 0,2
04.08.2020 09:00:00 11,1 8,6 - - 16 9 - - SSW 1005,3 19 0 0,0
04.08.2020 08:00:00 11,9 7,0 - - 13 7 - - SSW 1006,3 30 0 0,0
04.08.2020 07:00:00 11,3 7,3 - - 9 5 - - SSW 1007,7 30 0 0,0
04.08.2020 06:00:00 9,9 7,5 - - 5 3 - - NE 1009,0 30 0 0,0
04.08.2020 05:00:00 9,4 7,3 - - 5 3 - - W 1010,4 30 0 0,0
04.08.2020 04:00:00 8,3 6,7 - - 2 1 - - ESE 1011,4 35 0 0,0
04.08.2020 03:00:00 9,6 7,0 - - 5 3 - - SSW 1011,7 45 0 0,0
04.08.2020 02:00:00 9,5 7,2 - - 9 5 - - SSW 1012,2 55 0 0,0
04.08.2020 01:00:00 9,4 6,9 - - 8 4 - - SSW 1012,5 55 - 0,0
04.08.2020 00:00:00 9,8 7,2 - - 8 4 - - SSW 1013,0 40 0 0,0
03.08.2020 23:00:00 9,6 6,8 - - 2 1 - - SSW 1013,5 40 0 0,0
03.08.2020 22:00:00 11,1 6,9 - - 2 1 - - W 1013,6 35 0 0,0
03.08.2020 21:00:00 11,7 7,3 - - 4 2 - - SW 1013,2 35 0 0,0
03.08.2020 20:00:00 12,0 7,0 - - 5 3 - - SW 1013,2 35 6 0,0
03.08.2020 19:00:00 14,2 8,5 - - 9 5 - - SSW 1012,9 35 6 0,0
03.08.2020 18:00:00 14,8 6,5 - - 8 4 - - W 1013,1 40 6 0,0
03.08.2020 17:00:00 15,5 5,4 - - 11 6 - - W 1012,6 35 0 0,0
03.08.2020 16:00:00 15,3 7,5 - - 8 4 - - SW 1012,7 30 0 0,0
03.08.2020 15:00:00 16,0 9,7 - - 9 5 - - SSW 1012,7 45 18 0,0
03.08.2020 14:00:00 15,1 8,8 - - 9 5 - - SSW 1013,1 40 12 0,0
03.08.2020 13:00:00 12,1 6,7 - - 8 4 - - SSW 1013,8 30 0 0,0
03.08.2020 12:00:00 12,8 4,8 - - 9 5 - - SW 1013,8 45 0 0,0
03.08.2020 11:00:00 12,4 7,1 - - 8 4 - - SSW 1013,5 35 18 0,0
03.08.2020 10:00:00 10,9 6,9 16,0 14,2 9 5 - - SSW 1013,9 30 6 0,0
03.08.2020 09:00:00 10,9 7,4 - - 5 3 - - SW 1013,8 35 6 0,0
03.08.2020 08:00:00 10,1 6,9 - - 8 4 - - SSW 1013,6 35 24 0,0
03.08.2020 07:00:00 8,6 6,6 - - 8 4 - - SSW 1013,6 30 30 0,0
03.08.2020 06:00:00 5,1 4,6 - - 2 1 - - NNW 1014,2 24 0 0,0
03.08.2020 05:00:00 5,7 4,7 - - 4 2 - - NNE 1014,1 25 0 0,0
03.08.2020 04:00:00 7,1 5,6 - - 4 2 - - SW 1013,6 35 0 0,0
03.08.2020 03:00:00 7,7 5,9 - - 5 3 - - SW 1013,6 28 0 0,0
03.08.2020 02:00:00 7,8 6,0 - - 5 3 - - SW 1013,8 29 0 0,0
03.08.2020 01:00:00 8,6 6,0 - - 4 2 - - S 1013,7 35 - 0,0
03.08.2020 00:00:00 8,3 6,0 - - 5 3 - - WSW 1013,8 30 0 0,0
02.08.2020 23:00:00 8,8 5,1 - - 4 2 - - WSW 1013,6 35 0 0,0
02.08.2020 22:00:00 9,9 5,6 - - 4 2 - - WSW 1013,2 30 0 0,0
02.08.2020 21:00:00 11,1 6,5 - - 2 1 - - WSW 1012,8 35 0 0,0
02.08.2020 20:00:00 13,0 5,3 - - 8 4 - - WSW 1012,3 35 0 0,0
02.08.2020 19:00:00 13,4 7,5 - - 4 2 - - SW 1012,0 35 0 0,0
02.08.2020 18:00:00 15,1 6,8 - - 8 4 - - WSW 1011,6 35 0 0,0
02.08.2020 17:00:00 14,7 5,1 - - 9 5 - - SW 1011,5 35 24 0,0
02.08.2020 16:00:00 16,1 6,6 - - 11 6 - - WSW 1011,4 35 12 0,0
02.08.2020 15:00:00 16,1 7,5 - - 8 4 - - WSW 1011,4 40 12 0,0
02.08.2020 14:00:00 14,7 7,2 - - 8 4 - - SSW 1011,4 35 0 0,0
02.08.2020 13:00:00 - - - - 8 4 - - SW - 35 6 0,0
02.08.2020 12:00:00 - - - - 8 4 - - WSW - 45 0 0,0
02.08.2020 11:00:00 - - - - 8 4 - - SSW - 45 0 0,0
02.08.2020 10:00:00 - - 16,2 14,0 8 4 - - SSW - 50 0 0,0
02.08.2020 09:00:00 - - - - 4 2 - - SW - 35 0 0,0
02.08.2020 08:00:00 - - - - 5 3 - - SW - 30 0 0,0
02.08.2020 07:00:00 - - - - 5 3 - - SW - 35 0 0,2
02.08.2020 06:00:00 - - - - 4 2 - - SSW - 27 0 0,0
02.08.2020 05:00:00 - - - - 4 2 - - SSW - 17 0 0,2
02.08.2020 04:00:00 - - - - 4 2 - - SSW - 17 0 0,0
02.08.2020 03:00:00 - - - - 2 1 - - ESE - 26 0 0,0
02.08.2020 02:00:00 - - - - 4 2 - - S - 40 0 0,0
02.08.2020 01:00:00 - - - - 4 2 - - ESE - 40 - 0,0
02.08.2020 00:00:00 - - - - 4 2 - - SW - 40 0 0,0
01.08.2020 23:00:00 - - - - 8 4 - - S - 45 0 0,0
01.08.2020 22:00:00 - - - - 5 3 - - S - 40 0 0,0
01.08.2020 21:00:00 - - - - 5 3 - - SSW - 35 0 0,0
01.08.2020 20:00:00 - - - - 8 4 - - SW - 35 0 0,0
01.08.2020 19:00:00 - - - - 5 3 - - WSW - 35 0 0,0
01.08.2020 18:00:00 - - - - 9 5 - - WSW - 45 0 0,0
01.08.2020 17:00:00 - - - - 8 4 - - WSW - 40 0 0,0
01.08.2020 16:00:00 - - - - 11 6 - - WSW - 35 0 0,0
01.08.2020 15:00:00 - - - - 8 4 - - SW - 30 6 0,0
01.08.2020 14:00:00 - - - - 8 4 - - WSW - 40 0 0,0
01.08.2020 13:00:00 - - - - 8 4 - - SSW - 35 0 0,0
01.08.2020 12:00:00 - - - - 5 3 - - SSW - 35 6 0,0
01.08.2020 11:00:00 - - - - 5 3 - - SW - 35 12 0,0
01.08.2020 10:00:00 - - - - - - - - - - - - 0,0
01.08.2020 09:00:00 - - - - - - - - - - - - 0,0
01.08.2020 08:00:00 - - - - - - - - - - - - 0,0
01.08.2020 07:00:00 - - - - - - - - - - - - 0,0
01.08.2020 06:00:00 - - - - - - - - - - - - 0,0
01.08.2020 05:00:00 - - - - - - - - - - - - 0,0
01.08.2020 04:00:00 - - - - - - - - - - - - 0,0
01.08.2020 03:00:00 - - - - - - - - - - - - 0,0
01.08.2020 02:00:00 - - - - - - - - - - - - 0,0
01.08.2020 01:00:00 - - - - - - - - - - - - 0,0
01.08.2020 00:00:00 - - - - - - - - - - - - 0,0
31.07.2020 23:00:00 - - - - - - - - - - - - 0,8
31.07.2020 22:00:00 - - - - - - - - - - - - 0,4
31.07.2020 21:00:00 - - - - - - - - - - - - 0,0
31.07.2020 20:00:00 - - - - - - - - - - - - 0,0
31.07.2020 19:00:00 - - - - - - - - - - - - 0,0
31.07.2020 18:00:00 - - - - - - - - - - - - 0,0
31.07.2020 17:00:00 - - - - - - - - - - - - 0,0
31.07.2020 16:00:00 - - - - - - - - - - - - 0,0
31.07.2020 15:00:00 - - - - - - - - - - - - 0,0
31.07.2020 14:00:00 - - - - - - - - - - - - 0,0
31.07.2020 13:00:00 - - - - - - - - - - - - 0,0
31.07.2020 12:00:00 - - - - - - - - - - - - 0,0
31.07.2020 11:00:00 - - - - - - - - - - - - 0,0
31.07.2020 10:00:00 - - - - - - - - - - - - 0,0
31.07.2020 09:00:00 - - - - - - - - - - - - 0,0
31.07.2020 08:00:00 - - - - - - - - - - - - -
31.07.2020 07:00:00 - - - - - - - - - - - - 0,0
31.07.2020 06:00:00 - - - - - - - - - - - - -
31.07.2020 05:00:00 - - - - - - - - - - - - 0,0
31.07.2020 04:00:00 - - - - - - - - - - - - 0,0
31.07.2020 03:00:00 - - - - - - - - - - - - 0,0
31.07.2020 02:00:00 - - - - - - - - - - - - 0,0
31.07.2020 01:00:00 - - - - - - - - - - - - -
31.07.2020 00:00:00 - - - - - - - - - - - - -
30.07.2020 23:00:00 - - - - - - - - - - - - -
30.07.2020 22:00:00 - - - - - - - - - - - - -
30.07.2020 21:00:00 - - - - - - - - - - - - -
30.07.2020 20:00:00 - - - - - - - - - - - - -
30.07.2020 19:00:00 - - - - - - - - - - - - -
30.07.2020 18:00:00 - - - - - - - - - - - - -
30.07.2020 17:00:00 - - - - - - - - - - - - -
30.07.2020 16:00:00 - - - - - - - - - - - - -
30.07.2020 15:00:00 - - - - - - - - - - - - -
30.07.2020 14:00:00 - - - - - - - - - - - - -
30.07.2020 13:00:00 - - - - - - - - - - - - -
30.07.2020 12:00:00 - - - - - - - - - - - - -
30.07.2020 11:00:00 - - - - - - - - - - - - -
30.07.2020 10:00:00 - - - - - - - - - - - - -
30.07.2020 09:00:00 - - - - - - - - - - - - 0,0
30.07.2020 08:00:00 - - - - - - - - - - - - 0,2
30.07.2020 07:00:00 - - - - - - - - - - - - -
30.07.2020 06:00:00 - - - - - - - - - - - - -
30.07.2020 05:00:00 - - - - - - - - - - - - -
30.07.2020 04:00:00 - - - - - - - - - - - - 0,0
30.07.2020 03:00:00 - - - - - - - - - - - - -
30.07.2020 02:00:00 - - - - - - - - - - - - -

tt = temperature
td = dewpoint
tt -20cm = temperature -20cm
tt -100cm = temperature -100cm
ff = wind speed
fx = gusts
dd = wind direction
ppp = reduced air pressure
vv = visibility
sd = sunshine duration
rr = precipitation

Next stations